Terminal Aerodrome Forecast
Issued by NWS

Home | Current Version | Previous Version | Text Only | Print | Product List | Glossary On
Versions: 1 2 3 4 5 6 7 8 9 10 11 12 13 14 15 16 17 18 19 20 21 22 23 24 25 26 27 28
000
FTAK31 PAFA 220520
TAFABT
TAF
PABT 220520Z 2206/2306 01005KT P6SM FEW012 SCT050 BKN070
     FM221000 01004KT P6SM VCSH SCT035 BKN050 BKN100
     FM221400 04003KT P6SM -SHRA SCT025 BKN040 OVC050
     FM222200 20004KT P6SM -SHRA SCT025 OVC040=

USA.gov is the U.S. government's official web portal to all federal, state and local government web resources and services.